| time (UTC) | temp F | wind direction | speed knots | gust knots | rain 1hr in | rain 24hr in | rain mn in | humidity % | barometer mb |
| 20260831232036 | 91 | 225 | 2.6 | 6.1 | 0.00 | 0.00 | 0.00 | 54 | 1016.9 |
| 20260831231016 | 92 | 248 | 2.6 | 5.2 | 0.00 | 0.00 | 0.00 | 54 | 1016.9 |
| 20260831230036 | 92 | 248 | 1.7 | 6.1 | 0.00 | 0.00 | 0.00 | 54 | 1016.9 |
| 20260831225036 | 92 | 248 | 3.5 | 7.8 | 0.00 | 0.00 | 0.00 | 53 | 1017.0 |
| 20260831224016 | 92 | 248 | 3.5 | 8.7 | 0.00 | 0.00 | 0.00 | 53 | 1017.1 |
| 20260831223056 | 92 | 248 | 1.7 | 4.3 | 0.00 | 0.00 | 0.00 | 54 | 1017.2 |
| 20260831222016 | 92 | 248 | 2.6 | 7.0 | 0.00 | 0.00 | 0.00 | 54 | 1017.4 |
| 20260831221016 | 93 | 248 | 2.6 | 6.1 | 0.00 | 0.00 | 0.00 | 53 | 1017.6 |
| 20260831220016 | 93 | 248 | 2.6 | 5.2 | 0.00 | 0.00 | 0.00 | 53 | 1017.7 |
| 20260831215016 | 93 | 248 | 2.6 | 6.1 | 0.00 | 0.00 | 0.00 | 55 | 1017.8 |
| 20260831214016 | 93 | 248 | 2.6 | 7.0 | 0.00 | 0.00 | 0.00 | 55 | 1017.8 |
| 20260831213016 | 93 | 248 | 2.6 | 6.1 | 0.00 | 0.00 | 0.00 | 55 | 1017.9 |
| 20260831212016 | 93 | 270 | 1.7 | 4.3 | 0.00 | 0.00 | 0.00 | 54 | 1017.9 |
| 20260831211016 | 93 | 248 | 2.6 | 6.1 | 0.00 | 0.00 | 0.00 | 55 | 1017.9 |
| 20260831210016 | 94 | 248 | 2.6 | 7.0 | 0.00 | 0.00 | 0.00 | 53 | 1017.9 |
| 20260831205016 | 93 | 248 | 2.6 | 7.8 | 0.00 | 0.00 | 0.00 | 55 | 1018.1 |
| 20260831204056 | 95 | 248 | 2.6 | 7.0 | 0.00 | 0.00 | 0.00 | 54 | 1018.1 |
| 20260831203056 | 94 | 180 | 1.7 | 7.0 | 0.00 | 0.00 | 0.00 | 54 | 1018.2 |
| 20260831202016 | 95 | 248 | 2.6 | 7.0 | 0.00 | 0.00 | 0.00 | 53 | 1018.2 |
| 20260831201016 | 94 | 248 | 3.5 | 9.6 | 0.00 | 0.00 | 0.00 | 56 | 1018.4 |
| 20260831200016 | 95 | 248 | 3.5 | 8.7 | 0.00 | 0.00 | 0.00 | 54 | 1018.5 |
| 20260831195016 | 95 | 248 | 2.6 | 7.8 | 0.00 | 0.00 | 0.00 | 55 | 1018.6 |
| 20260831194016 | 95 | 248 | 2.6 | 7.0 | 0.00 | 0.00 | 0.00 | 55 | 1018.8 |
| 20260831193016 | 95 | 248 | 3.5 | 8.7 | 0.00 | 0.00 | 0.00 | 58 | 1018.9 |
| 20260831192016 | 94 | 248 | 2.6 | 8.7 | 0.00 | 0.00 | 0.00 | 57 | 1018.9 |
| 20260831191016 | 94 | 248 | 3.5 | 6.1 | 0.00 | 0.00 | 0.00 | 54 | 1018.9 |
| 20260831190016 | 94 | 248 | 3.5 | 7.0 | 0.00 | 0.00 | 0.00 | 56 | 1019.0 |
| 20260831185016 | 94 | 248 | 4.3 | 9.6 | 0.00 | 0.00 | 0.00 | 58 | 1019.2 |
| 20260831184016 | 93 | 248 | 2.6 | 7.0 | 0.00 | 0.00 | 0.00 | 59 | 1019.2 |
| 20260831183036 | 93 | 248 | 2.6 | 5.2 | 0.00 | 0.00 | 0.00 | 57 | 1019.2 |
| 20260831182016 | 94 | 225 | 3.5 | 7.0 | 0.00 | 0.00 | 0.00 | 56 | 1019.4 |
| 20260831181016 | 92 | 248 | 3.5 | 7.8 | 0.00 | 0.00 | 0.00 | 59 | 1019.4 |
| 20260831180036 | 94 | 248 | 3.5 | 7.8 | 0.00 | 0.00 | 0.00 | 58 | 1019.5 |
| 20260831175036 | 92 | 248 | 3.5 | 10.4 | 0.00 | 0.00 | 0.00 | 59 | 1019.5 |
| 20260831174017 | 92 | 248 | 2.6 | 7.0 | 0.00 | 0.00 | 0.00 | 63 | 1019.7 |
| 20260831173036 | 93 | 248 | 3.5 | 7.8 | 0.00 | 0.00 | 0.00 | 58 | 1019.8 |
| 20260831172036 | 93 | 248 | 3.5 | 10.4 | 0.00 | 0.00 | 0.00 | 58 | 1019.8 |
| 20260831171036 | 93 | 248 | 3.5 | 8.7 | 0.00 | 0.00 | 0.00 | 60 | 1020.0 |
| 20260831170116 | 94 | 248 | 3.5 | 8.7 | 0.00 | 0.00 | 0.00 | 59 | 1020.1 |
| 20260831165016 | 94 | 248 | 4.3 | 10.4 | 0.00 | 0.00 | 0.00 | 57 | 1020.1 |
| 20260831164036 | 93 | 248 | 3.5 | 7.8 | 0.00 | 0.00 | 0.00 | 60 | 1020.2 |
| 20260831163036 | 93 | 248 | 4.3 | 8.7 | 0.00 | 0.00 | 0.00 | 59 | 1020.3 |
| 20260831162016 | 92 | 248 | 4.3 | 12.2 | 0.00 | 0.00 | 0.00 | 60 | 1020.3 |
| 20260831161016 | 92 | 248 | 4.3 | 9.6 | 0.00 | 0.00 | 0.00 | 59 | 1020.4 |
| 20260831160036 | 92 | 248 | 4.3 | 8.7 | 0.00 | 0.00 | 0.00 | 61 | 1020.4 |
| 20260831155036 | 91 | 248 | 4.3 | 10.4 | 0.00 | 0.00 | 0.00 | 61 | 1020.4 |
| 20260831154036 | 91 | 225 | 3.5 | 9.6 | 0.00 | 0.00 | 0.00 | 62 | 1020.4 |
| 20260831153016 | 91 | 248 | 3.5 | 9.6 | 0.00 | 0.00 | 0.00 | 64 | 1020.4 |
| 20260831152056 | 90 | 248 | 1.7 | 6.1 | 0.00 | 0.00 | 0.00 | 65 | 1020.4 |
| 20260831151036 | 89 | 248 | 1.7 | 5.2 | 0.00 | 0.00 | 0.00 | 67 | 1020.4 |
| 20260831150036 | 88 | 248 | 2.6 | 6.1 | 0.00 | 0.00 | 0.00 | 68 | 1020.4 |
| 20260831145016 | 87 | 225 | 2.6 | 7.8 | 0.00 | 0.00 | 0.00 | 69 | 1020.3 |
| 20260831144016 | 86 | 248 | 2.6 | 7.0 | 0.00 | 0.00 | 0.00 | 69 | 1020.2 |
| 20260831143016 | 85 | 248 | 3.5 | 7.8 | 0.00 | 0.00 | 0.00 | 71 | 1020.2 |
| 20260831142016 | 85 | 248 | 1.7 | 6.1 | 0.00 | 0.00 | 0.00 | 74 | 1020.2 |
| 20260831141016 | 83 | 248 | 1.7 | 5.2 | 0.00 | 0.00 | 0.00 | 75 | 1020.1 |
| 20260831140016 | 82 | 248 | 2.6 | 5.2 | 0.00 | 0.00 | 0.00 | 78 | 1020.0 |
| 20260831135016 | 81 | 248 | 1.7 | 5.2 | 0.00 | 0.00 | 0.00 | 80 | 1020.1 |
| 20260831134016 | 79 | 248 | 0.9 | 2.6 | 0.00 | 0.00 | 0.00 | 83 | 1020.2 |
| 20260831133036 | 78 | 270 | 0.9 | 2.6 | 0.00 | 0.00 | 0.00 | 87 | 1020.2 |
| 20260831132036 | 77 | 0.0 | 1.7 | 0.00 | 0.00 | 0.00 | 89 | 1020.0 | |
| 20260831131016 | 76 | 0.0 | 2.6 | 0.00 | 0.00 | 0.00 | 92 | 1020.0 | |
| 20260831130016 | 75 | 0.0 | 2.6 | 0.00 | 0.00 | 0.00 | 93 | 1019.9 | |
| 20260831125016 | 74 | 0.0 | 1.7 | 0.00 | 0.00 | 0.00 | 94 | 1019.8 | |
| 20260831124016 | 73 | 0.0 | 0.0 | 0.00 | 0.00 | 0.00 | 94 | 1019.8 | |
| 20260831123016 | 73 | 0.0 | 0.0 | 0.00 | 0.00 | 0.00 | 94 | 1019.8 | |
| 20260831122016 | 72 | 0.0 | 0.0 | 0.00 | 0.00 | 0.00 | 94 | 1019.8 | |
| 20260831121016 | 72 | 0.0 | 0.0 | 0.00 | 0.00 | 0.00 | 94 | 1019.6 | |
| 20260831120016 | 71 | 0.0 | 0.0 | 0.00 | 0.00 | 0.00 | 94 | 1019.5 | |
| 20260831115036 | 71 | 0.0 | 0.0 | 0.00 | 0.00 | 0.00 | 94 | 1019.5 | |
| 20260831114016 | 71 | 0.0 | 0.0 | 0.00 | 0.00 | 0.00 | 93 | 1019.4 | |
| 20260831113016 | 71 | 0.0 | 0.0 | 0.00 | 0.00 | 0.00 | 93 | 1019.2 | |
| 20260831112016 | 71 | 0.0 | 0.0 | 0.00 | 0.00 | 0.00 | 93 | 1019.1 | |
| 20260831111016 | 71 | 0.0 | 0.0 | 0.00 | 0.00 | 0.00 | 93 | 1019.0 | |
| 20260831110016 | 71 | 0.0 | 0.0 | 0.00 | 0.00 | 0.00 | 93 | 1019.0 | |
| 20260831105016 | 71 | 0.0 | 0.0 | 0.00 | 0.00 | 0.00 | 93 | 1018.9 | |
| 20260831104016 | 71 | 0.0 | 0.0 | 0.00 | 0.00 | 0.00 | 93 | 1018.9 | |
| 20260831103036 | 71 | 0.0 | 0.0 | 0.00 | 0.00 | 0.00 | 93 | 1018.8 | |
| 20260831102036 | 71 | 0.0 | 0.0 | 0.00 | 0.00 | 0.00 | 93 | 1018.6 | |
| 20260831101036 | 71 | 0.0 | 0.0 | 0.00 | 0.00 | 0.00 | 93 | 1018.6 | |
| 20260831100016 | 71 | 0.0 | 0.0 | 0.00 | 0.00 | 0.00 | 93 | 1018.5 | |
| 20260831095016 | 71 | 0.0 | 0.0 | 0.00 | 0.00 | 0.00 | 93 | 1018.3 | |
| 20260831094016 | 71 | 0.0 | 0.9 | 0.00 | 0.00 | 0.00 | 93 | 1018.3 | |
| 20260831093016 | 71 | 0.0 | 1.7 | 0.00 | 0.00 | 0.00 | 93 | 1018.2 | |
| 20260831092036 | 71 | 0.0 | 0.0 | 0.00 | 0.00 | 0.00 | 93 | 1018.2 | |
| 20260831091016 | 71 | 0.0 | 1.7 | 0.00 | 0.00 | 0.00 | 92 | 1018.1 | |
| 20260831090016 | 71 | 0.0 | 1.7 | 0.00 | 0.00 | 0.00 | 92 | 1018.2 | |
| 20260831085036 | 71 | 0.0 | 0.9 | 0.00 | 0.00 | 0.00 | 92 | 1018.2 | |
| 20260831084016 | 71 | 0.0 | 0.0 | 0.00 | 0.00 | 0.00 | 92 | 1018.2 | |
| 20260831083016 | 71 | 0.0 | 0.0 | 0.00 | 0.00 | 0.00 | 91 | 1018.3 | |
| 20260831082016 | 71 | 0.0 | 0.9 | 0.00 | 0.00 | 0.00 | 91 | 1018.3 | |
| 20260831081016 | 71 | 0.0 | 0.0 | 0.00 | 0.00 | 0.00 | 91 | 1018.1 | |
| 20260831080016 | 72 | 0.0 | 0.0 | 0.00 | 0.00 | 0.00 | 91 | 1018.0 | |
| 20260831075016 | 72 | 0.0 | 0.0 | 0.00 | 0.00 | 0.00 | 91 | 1018.1 | |
| 20260831074016 | 72 | 0.0 | 0.0 | 0.00 | 0.00 | 0.00 | 91 | 1018.0 | |
| 20260831073016 | 72 | 0.0 | 0.0 | 0.00 | 0.00 | 0.00 | 91 | 1018.1 | |
| 20260831072016 | 72 | 0.0 | 0.0 | 0.00 | 0.00 | 0.00 | 90 | 1018.3 | |
| 20260831071016 | 72 | 0.0 | 0.0 | 0.00 | 0.00 | 0.00 | 90 | 1018.3 | |
| 20260831070016 | 72 | 0.0 | 0.0 | 0.00 | 0.00 | 0.00 | 90 | 1018.2 | |
| 20260831065016 | 73 | 0.0 | 0.0 | 0.00 | 0.00 | 0.00 | 90 | 1018.2 | |
| 20260831064016 | 73 | 0.0 | 0.0 | 0.00 | 0.00 | 0.00 | 90 | 1018.5 | |
| 20260831063016 | 73 | 0.0 | 0.0 | 0.00 | 0.00 | 0.00 | 90 | 1018.6 | |
| 20260831062016 | 73 | 0.0 | 0.0 | 0.00 | 0.00 | 0.00 | 89 | 1018.6 | |
| 20260831061016 | 73 | 0.0 | 0.0 | 0.00 | 0.00 | 0.00 | 89 | 1018.5 | |
| 20260831060016 | 73 | 0.0 | 0.0 | 0.00 | 0.00 | 0.00 | 88 | 1018.5 | |
| 20260831055016 | 74 | 0.0 | 0.0 | 0.00 | 0.00 | 0.00 | 88 | 1018.3 | |
| 20260831054016 | 74 | 0.0 | 0.0 | 0.00 | 0.00 | 0.00 | 88 | 1018.4 | |
| 20260831053016 | 74 | 0.0 | 0.0 | 0.00 | 0.00 | 0.00 | 88 | 1018.3 | |
| 20260831052016 | 74 | 0.0 | 0.0 | 0.00 | 0.00 | 0.00 | 88 | 1018.4 | |
| 20260831051016 | 74 | 0.0 | 0.0 | 0.00 | 0.00 | 0.00 | 87 | 1018.5 | |
| 20260831050036 | 74 | 0.0 | 0.0 | 0.00 | 0.00 | 0.00 | 87 | 1018.6 | |
| 20260831045016 | 75 | 0.0 | 0.0 | 0.00 | 0.00 | 0.00 | 86 | 1018.6 | |
| 20260831044016 | 75 | 0.0 | 0.0 | 0.00 | 0.00 | 0.00 | 86 | 1018.7 | |
| 20260831043016 | 75 | 0.0 | 0.0 | 0.00 | 0.00 | 0.00 | 86 | 1018.7 | |
| 20260831042016 | 75 | 0.0 | 0.0 | 0.00 | 0.00 | 0.00 | 86 | 1018.5 | |
| 20260831041016 | 76 | 0.0 | 0.0 | 0.00 | 0.00 | 0.00 | 86 | 1018.4 | |
| 20260831040016 | 76 | 0.0 | 0.0 | 0.00 | 0.00 | 0.00 | 85 | 1018.4 | |
| 20260831035017 | 76 | 0.0 | 0.0 | 0.00 | 0.00 | 0.00 | 85 | 1018.3 | |
| 20260831034016 | 76 | 0.0 | 0.0 | 0.00 | 0.00 | 0.00 | 84 | 1018.3 | |
| 20260831033016 | 77 | 0.0 | 0.0 | 0.00 | 0.00 | 0.00 | 83 | 1018.4 | |
| 20260831032016 | 77 | 0.0 | 0.0 | 0.00 | 0.00 | 0.00 | 82 | 1018.4 | |
| 20260831031016 | 77 | 0.0 | 0.0 | 0.00 | 0.00 | 0.00 | 82 | 1018.4 | |
| 20260831030016 | 78 | 0.0 | 0.0 | 0.00 | 0.00 | 0.00 | 81 | 1018.4 | |
| 20260831025036 | 78 | 0.0 | 0.0 | 0.00 | 0.00 | 0.00 | 81 | 1018.4 | |
| 20260831024016 | 78 | 0.0 | 0.0 | 0.00 | 0.00 | 0.00 | 80 | 1018.2 | |
| 20260831023016 | 79 | 0.0 | 0.0 | 0.00 | 0.00 | 0.00 | 79 | 1018.3 | |
| 20260831022016 | 79 | 0.0 | 0.0 | 0.00 | 0.00 | 0.00 | 79 | 1018.2 | |
| 20260831021016 | 79 | 0.0 | 0.0 | 0.00 | 0.00 | 0.00 | 78 | 1018.1 | |
| 20260831020016 | 80 | 0.0 | 0.0 | 0.00 | 0.00 | 0.00 | 77 | 1018.2 | |
| 20260831015016 | 80 | 0.0 | 0.0 | 0.00 | 0.00 | 0.00 | 77 | 1018.0 | |
| 20260831014017 | 81 | 0.0 | 0.0 | 0.00 | 0.00 | 0.00 | 76 | 1017.9 | |
| 20260831013016 | 81 | 0.0 | 0.0 | 0.00 | 0.00 | 0.00 | 76 | 1017.8 | |
| 20260831012016 | 81 | 0.0 | 0.0 | 0.00 | 0.00 | 0.00 | 75 | 1017.6 | |
| 20260831011016 | 82 | 0.0 | 0.0 | 0.00 | 0.00 | 0.00 | 76 | 1017.6 | |
| 20260831010016 | 81 | 0.0 | 0.0 | 0.00 | 0.00 | 0.00 | 77 | 1017.4 | |
| 20260831005016 | 82 | 0.0 | 0.0 | 0.00 | 0.00 | 0.00 | 75 | 1017.2 | |
| 20260831004016 | 82 | 0.0 | 0.0 | 0.00 | 0.00 | 0.00 | 75 | 1017.2 | |
| 20260831003016 | 83 | 0.0 | 0.0 | 0.00 | 0.00 | 0.00 | 72 | 1017.2 | |
| 20260831002016 | 84 | 0.0 | 0.0 | 0.00 | 0.00 | 0.00 | 70 | 1017.1 | |
| 20260831001016 | 85 | 0.0 | 0.0 | 0.00 | 0.00 | 0.00 | 67 | 1017.0 | |
| 20260831000016 | 86 | 0.0 | 1.7 | 0.00 | 0.00 | 0.00 | 65 | 1017.2 | |
| 20260830235036 | 87 | 0.0 | 1.7 | 0.00 | 0.00 | 0.00 | 63 | 1017.3 | |
| 20260830234036 | 88 | 0.0 | 2.6 | 0.00 | 0.00 | 0.00 | 60 | 1017.3 | |
| 20260830233016 | 89 | 248 | 0.9 | 2.6 | 0.00 | 0.00 | 0.00 | 59 | 1017.2 |